Location: Newark
(34.9500°N, 139.9667°E)
Time: 21:20:54
(UTC+00:00)

Altair - Pass Details

Date: 17 December 2019
Orbit: 1502 x 1682 km, 47.2° (Epoch: 25 January)

Event Time Altitude Azimuth Distance (km) Brightness Sun altitude
Rises 07:59:39 0° 206° (SSW) 4,884 11.0 -6.2°
Reaches altitude 10° 08:03:01 10° 200° (SSW) 3,880 10.3 -6.8°
Maximum altitude 08:12:10 44° 133° (SE) 2,113 8.1 -8.6°
Enters shadow 08:20:31 12° 66° (ENE) 3,621 8.8 -10.1°
